Current weather by "City, St" or "zip code"  
 

Current Conditions: HOUSTON/UNIV

Cloudy


80.6 F

Last Updated on May 26 2024, 03:35 AM CDT
Humidity: 89%
Wind Speed: 11.4 mph
Barometer 29.73 in
Dewpoint: 77.0 F
Visibility: NULL mi
Precip: --
Heat Index: 87.1 F
Wind Chill: NA
Current conditions at:

HOUSTON/UNIV (KMCJ)

Lat: 29.71 Lon: 95.4

active severe weather and emergency alerts image image weather storm and storm spotter reports image weather observation monitoring service image
Active
Alerts
Storm Reports Obs
Monitoring

Sign-up For Email & Text Message Weather Alert Notification Services



Advertise Here

Observation History for HOUSTON/UNIV


Time Wind
(mph)
Vis
(mi)
Weather Precip (in) Temperature (F) Relative
Humidity
Wind
Chill
(F)
Heat
Index
(F)
Pressure
Air Dwpt altimeter
(in)
sea level
(mb)
Rmks
03:35 AM CDT 11.4 NULL Cloudy -- 80.6 77.0 89% NA 87.1 29.73 1006.8
02:55 AM CDT NULL Cloudy -- 80.6 77.0 89% NA 87.1 29.74 1007.1
01:35 AM CDT 13.9 NULL NULL -- 80.6 77.0 89% NA 87.1 29.74 1007.1
12:55 AM CDT NULL Cloudy -- 80.6 77.0 89% NA 87.1 29.75 1007.5
12:35 AM CDT 16.1 NULL Cloudy -- 80.6 77.0 89% NA 87.1 29.76 1007.8
11:55 PM CDT 12.8 NULL Cloudy -- 80.6 77.0 89% NA 87.1 29.77 1008.1
11:35 PM CDT 12.8 NULL Cloudy -- 80.6 77.0 89% NA 87.1 29.79 1008.8
11:15 PM CDT 12.8 NULL Cloudy -- 80.6 77.0 89% NA 87.1 29.79 1008.8
10:55 PM CDT 11.4 NULL Cloudy -- 80.6 77.0 89% NA 87.1 29.79 1008.8
09:55 PM CDT 16.1 NULL Cloudy -- 80.6 77.0 89% NA 87.1 29.78 1008.5
09:35 PM CDT NULL Cloudy -- 80.6 77.0 89% NA 87.1 29.77 1008.1
09:15 PM CDT SE 16.1 NULL Cloudy -- 80.6 77.0 89% NA 87.1 29.77 1008.1
08:55 PM CDT SE 13.9 NULL Mostly Cloudy -- 82.4 75.2 79% NA 89.4 29.77 1008.1
08:35 PM CDT SE 10.3 NULL Clear -- 82.4 75.2 79% NA 89.4 29.76 1007.8
08:15 PM CDT SE 15.0 NULL Clear -- 84.2 75.2 74% NA 92.5 29.75 1007.5
06:55 PM CDT 9.2 NULL Clear -- 87.8 71.6 59% NA 94.3 29.74 1007.1
06:15 PM CDT SE 16.1 NULL Clear -- 86.0 75.2 70% NA 95.2 29.74 1007.1
05:55 PM CDT SE 17.2 NULL Mostly Clear -- 87.8 75.2 66% NA 97.7 29.75 1007.5
05:35 PM CDT NULL Mostly Clear -- 87.8 75.2 66% NA 97.7 29.74 1007.1
04:55 PM CDT SE 10.3 NULL Clear -- 89.6 75.2 63% NA 100.2 29.75 1007.5
04:35 PM CDT S 17.2 NULL Mostly Clear -- 89.6 75.2 63% NA 100.2 29.75 1007.5
04:15 PM CDT NULL NULL -- 89.6 75.2 63% NA 100.2 29.74 1007.1
03:55 PM CDT 13.9 NULL Clear -- 89.6 75.2 63% NA 100.2 29.77 1008.1
03:35 PM CDT 17.2 NULL Clear -- 91.4 75.2 59% NA 102.7 29.77 1008.1

Regional Weather Observation


HOUSTON/UNIV (KMCJ)

Cloudy
80.6 F

HOUSTON/INTNL (KIAH)

Cloudy
82.0 F

HOUSTON/DW HOOKS (KDWH)

Cloudy
82.0 F

HOUSTON/SUGAR LA (KSGR)

Cloudy
82.9 F

HOUSTON/HOBBY (KHOU)

Cloudy
82.9 F

HOUSTON/SOUTHWST (KAXH)

Cloudy
81.5 F

Advertise Here


Advertise Here